Regional Weather Roundup
Issued by NWS

Home | Current Version | Previous Version | Graphics & Text | Print | Product List | Glossary On
Versions: 1 2 3 4 5 6 7 8 9 10 11 12 13 14 15 16 17 18 19 20 21 22 23 24 25 26 27 28 29 30 31 32 33 34 35 36 37 38 39 40 41 42 43 44 45 46 47 48 49 50
000
ASUS43 KMPX 291001
RWRMN
WEATHER ROUNDUP FOR MINNESOTA
NATIONAL WEATHER SERVICE TWIN CITIES/CHANHASSEN MN
500 AM CDT TUE JUL 29 2014


NOTE: "FAIR" INDICATES FEW OR NO CLOUDS BELOW 12,000 FEET WITH NO
SIGNIFICANT WEATHER AND/OR OBSTRUCTIONS TO VISIBILITY. N/A MEANS
CURRENT SKY AND/OR WEATHER CONDITIONS ARE NOT AVAILABLE.

MNZ060>063-068>070-291100-
   Twin Cities Metro

CITY           SKY/WX    TMP DP  RH WIND       PRES   REMARKS
TWIN CITIES    PTCLDY    60  56  86 NW7       30.12S
ST PAUL        CLEAR     60  55  83 NW3       30.12S
CRYSTAL        CLEAR     61  54  77 NW5       30.12R
BLAINE         CLEAR     61  57  88 W5        30.12S
LAKEVILLE      CLEAR     57  55  94 W5        30.13S
EDEN PRAIRIE   CLEAR     61  56  83 CALM      30.12S
SOUTH ST PAUL  CLEAR     61  55  81 W3        30.12R
LAKE ELMO      FAIR      55  54  94 CALM      30.12S
$$
MNZ001>005-007-008-013>017-022>024-027-028-291100-
   Northwest Minnesota

CITY           SKY/WX    TMP DP  RH WIND       PRES   REMARKS
BEMIDJI        CLEAR     54  52  92 W7        30.15S
HALLOCK        CLEAR     54  52  94 W3        30.16S
ROSEAU         CLEAR     57  52  82 W6        30.15R
WARROAD        CLEAR     55  52  88 W5        30.14S
THIEF RVR FALL CLEAR     55  52  88 W3        30.17R
CROOKSTON      CLEAR     52  52 100 CALM      30.18S
FOSSTON        CLEAR     46  45  93 CALM      30.18R
DETROIT LAKES  CLEAR     55  54  94 NW5       30.19S
MOORHEAD       CLEAR     55  55 100 CALM      30.19S
PARK RAPIDS    CLEAR     49  48  97 W3        30.16S
$$
MNZ006-009>011-018-025>026-291100-
   North Central Minnesota

CITY           SKY/WX    TMP DP  RH WIND       PRES   REMARKS
BAUDETTE       CLOUDY    58  55  90 CALM      30.13S
FLAG ISLAND    CLEAR     63  55  77 NW9       30.11S
INTL FALLS     MOCLDY    56  55  97 W3        30.09S
WASKISH        CLEAR     61  55  82 NW5       30.13S
BIG FORK       CLEAR     54  52  94 W1        30.13S
LONGVILLE      CLEAR     57  55  94 W3        30.13S
GRAND RAPIDS   PTCLDY    59  54  82 NW5       30.12S
CRANE LAKE     CLEAR     55  54  94 SW3       30.09S
ORR            CLEAR     52  50  93 CALM      30.08S
COOK           CLEAR     52  52 100 CALM      30.10S
$$
MNZ012-019>021-037-291100-
   Northeast Minnesota

CITY           SKY/WX    TMP DP  RH WIND       PRES   REMARKS
DULUTH         PTCLDY    54  51  90 W6        30.09S
ELY            MOCLDY    55  54  94 CALM      30.07S
HIBBING        CLEAR     50  47  89 N3        30.10F
EVELETH        CLEAR     54  52  94 SW3       30.10S
DULUTH HARBOR  MOCLDY    64  57  77 SW6       30.08S
TWO HARBORS    CLEAR     55  50  82 W5        30.05S
SILVER BAY     PTCLDY    57  55  94 CALM      30.03S
GRAND MARAIS     N/A     63  53  70 N12G29    29.98S
G MARAIS ARPRT PTCLDY    55  50  82 NW7       30.04S
$$
MNZ029>031-032-039>041-046>048-054>057-064-291100-
   West Central Minnesota

CITY           SKY/WX    TMP DP  RH WIND       PRES   REMARKS
FERGUS FALLS   CLEAR     54  52  94 N3        30.19S
WHEATON        CLEAR     54  52  94 W3        30.20F
MORRIS         CLEAR     52  52 100 N5        30.18S
ALEXANDRIA     CLEAR     57  54  89 NW5       30.19S
ELBOW LAKE     FAIR      54  53  97 CALM      30.18S
WADENA         CLEAR     54  52  94 W5        30.17S
GLENWOOD       CLEAR     54  54 100 W5        30.19S
APPLETON       CLEAR     52  50  93 CALM      30.18S
BENSON         CLEAR     52  50  93 N1        30.18S
ORTONVILLE     CLEAR     54  52  94 NW3       30.19S
MADISON        CLEAR     52  50  93 W7        30.19S
WILLMAR        FAIR      54  52  94 NW3       30.19S
$$
MNZ033>034-036-042>043-049>051-058-059-291100-
   Central Minnesota

CITY           SKY/WX    TMP DP  RH WIND       PRES   REMARKS
ST CLOUD       CLEAR     57  53  86 NW5       30.14S
SAUK CENTRE    FAIR      52  51  96 NW3       30.18S
PAYNESVILLE    CLEAR     49  49 100 SW6       30.18R
AITKIN         CLEAR     54  48  82 CALM      30.12R HAZE
PINE RIVER     CLEAR     52  52 100 CALM      30.17S
BRAINERD       CLEAR     54  52  93 CALM      30.15R
STAPLES        CLEAR     54  52  94 CALM      30.16S
LONG PRAIRIE   FAIR      55  52  88 NW3       30.17S
LITTLE FALLS   CLEAR     52  50  93 CALM      30.15S
LITCHFIELD     PTCLDY    59  57  94 W5        30.17R
BUFFALO        CLEAR     59  53  78 NW3       30.15S
MAPLE LAKE     CLEAR     59  55  85 NW3       30.16R
$$
MNZ037-044-045-052-053-291100-
   East Central Minnesota

CITY           SKY/WX    TMP DP  RH WIND       PRES   REMARKS
PRINCETON      CLEAR     55  54  94 CALM      30.14R
MORA           CLEAR     54  52  94 CALM      30.14S FOG
CAMBRIDGE      CLEAR     59  50  72 NW3       30.11R
RUSH CITY      MOCLDY    55  53  92 CALM      30.11S
MOOSE LAKE     CLEAR     54  52  94 CALM      30.09S
HINCKLEY       FAIR      57  55  94 NW3       30.11S
CLOQUET        CLEAR     52  50  93 CALM      30.10S
MCGREGOR       CLEAR     54  52  94 CALM      30.12F
$$
MNZ071>073-080-081-089-090-097-098-291100-
   Southwest Minnesota

CITY           SKY/WX    TMP DP  RH WIND       PRES   REMARKS
MONTEVIDEO     CLEAR     54  52  94 NW6       30.19S
GRANITE FALLS  CLEAR     50  49  97 W6        30.20S
CANBY          CLEAR     54  50  89 W6        30.21R
MARSHALL       CLEAR     52  48  87 W8        30.19R
REDWOOD FALLS  CLEAR     54  52  93 W8        30.17S
OLIVIA         CLEAR     54  52  94 NW3       30.17R
PIPESTONE      CLEAR     52  50  93 CALM      30.21S
WINDOM         CLEAR     54  52  94 W5        30.19S
WORTHINGTON    CLEAR     52  48  87 W7        30.21S
JACKSON        CLEAR     54  50  87 W6        30.19S
TRACY          CLEAR     56  52  84 W6        30.20S
SLAYTON        CLEAR     52  50  92 CALM      30.21S
$$
MNZ065>067-074>077-082>085-091>093-291100-
   South Central Minnesota

CITY           SKY/WX    TMP DP  RH WIND       PRES   REMARKS
MANKATO        PTCLDY    57  52  82 NW5       30.15S
NEW ULM        CLEAR     54  54 100 W6        30.16S
ST JAMES       CLEAR     55  52  88 W6        30.18S
FAIRMONT       CLEAR     55  48  76 NW6       30.17S
GLENCOE        CLEAR     58  53  83 W5        30.15R
FARIBAULT      CLEAR     59  52  77 CALM      30.14S
OWATONNA       CLEAR     54  52  94 CALM      30.14S
WASECA         CLEAR     50  46  87 CALM      30.16S
ALBERT LEA     CLEAR     55  54  94 W3        30.15S
$$
MNZ078>079-086>088-094>096-291100-
   Southeast Minnesota

CITY           SKY/WX    TMP DP  RH WIND       PRES   REMARKS
ROCHESTER      CLEAR     55  52  89 W7        30.14R
RED WING       CLEAR     55  54  94 W5        30.10R
STANTON        CLEAR     55  52  90 SW5       30.12S
DODGE CENTER   CLEAR     59  55  88 NW8       30.13S
WINONA         CLEAR     55  54  94 NW5       30.10R
AUSTIN         CLEAR     55  52  88 NW5       30.13S
PRESTON        CLEAR     55  55 100 NW9       30.13R
$$
ABBREVIATIONS USED IN REMARKS
   TC - TEMPERATURES IN CELSIUS
  WCI - WIND CHILL INDEX
   HX - HEAT INDEX
  VSB - VISIBILITY
$$



USA.gov is the U.S. government's official web portal to all federal, state and local government web resources and services.